www.pogodaiklimat.ru

Погода и климат >> Архив погоды >> Россия >> Якутия >> Батагай-Алыта


ПОГОДА в Батагай-Алыте

  • Прогноз погоды в Батагай-Алыте
  • Монитор погоды в Батагай-Алыте

АРХИВ ПОГОДЫ в Батагай-Алыте

Время (UTC), дата Ветер
(напр.,м/с)
 
Видим.   Явления Облачность Т
(С)
Тd
(С)
f
(%)
Тe
(С)
Тes
(С)
Комфортность P
(гПа)
Po
(гПа)
Тmin
(С)
Tmax
(С)
R
(мм)
R24
(мм)
S
(см)
06 9.09 З 8 50 км 3/3 1000 м
[Cb cap]
+12.9 +2.4 49 +10 +11 1000.8 944.1
09 9.09 З 7-10
{12}
50 км 3/3 1500 м
[Cu med, cong]
+10.8 +2.4 56 +8 +8 1002.5 945.4 +13.1
12 9.09 СВ 1 н/о н/о +4.6 +1.7 81 +3 +3 1004.8 946.2
15 9.09 СЗ 1 н/о н/о +2.3 +1.4 94 +1 +1 1004.1 945.1
18 9.09 СЗ 1 н/о н/о +4.2 +3.2 93 +3 +3 1002.7 944.3
21 9.09 З 3 н/о н/о +4.4 +4.1 98 +1 +1 1004.6 946.1 +1.9
00 10.09 СВ 4 50 км {ливн. осадки} 8/8 1000 м
[Cb cap]
+6.9 +3.5 79 +3 +4 1006.6 948.5 +1.9 0.0
03 10.09 С 3 50 км 5/5 1000 м
[Cb cap]
+8.3 +3.6 72 +6 +8 1008.7 950.7
06 10.09 СВ 1 50 км 3/3 1000 м
[Cu med, cong]
+9.4 +2.7 63 +9 +11 1009.7 941.9
09 10.09 ЮВ 3 50 км 4/4 1000 м
[Cu med, cong]
+8.1 +2.4 67 +6 +6 1011.0 952.8 +9.9
12 10.09 ЮВ 2 н/о н/о +8.1 +2.5 68 +6 +6 1011.0 954.1
15 10.09 ЮВ 1 н/о н/о +3.6 -0.3 76 +2 +2 1013.4 954.2
18 10.09 ЮВ 2 н/о н/о +2.7 -0.3 81 -0 -0 1013.0 953.5
21 10.09 штиль 0 н/о н/о +1.0 -0.4 90 -0 -0 1012.1 952.4 +0.9
00 11.09 ЮВ 3 50 км 8/8 1000 м
[Cb cap]
+4.0 +0.2 76 0 +1 1010.0 951.1 0.0
03 11.09 ЮВ 3 50 км 10/8 1000 м
[Cb cap Ac und]
+6.5 +1.8 72 +4 +4 1007.9 949.6
06 11.09 В 2 50 км 10/6 1000 м
[Cb cap Ac und]
+8.0 +3.5 73 +6 +7 1006.2 948.3
09 11.09 З 2 50 км 10/8 1000 м
[Cb cap Ac und]
+7.4 +4.0 79 +5 +5 1005.6 947.6 +9.2
12 11.09 С 1 н/о н/о +4.7 +3.4 91 +3 +3 1006.3 947.7
15 11.09 ЮЗ 1 н/о н/о +1.2 +1.4 100 -1 -1 1007.1 947.7
18 11.09 С 1 н/о н/о +2.3 +2.0 98 0 0 1006.9 947.8
21 11.09 ЮЗ 1 н/о н/о +3.8 +3.7 99 +2 +2 1007.0 948.2 +1.1
00 12.09 З 2 50 км 8/5 1000 м
[Cb cap Ac trans]
+7.3 +4.6 83 +5 +6 1006.5 948.5 +1.1
03 12.09 В 2 50 км 3/3 1000 м
[Cb cap]
+11.4 +5.3 66 +10 +13 1005.0 947.8
06 12.09 Ю 5 50 км 4/4 1000 м
[Cb cap]
+11.4 +5.5 67 +9 +10 1004.5 947.3
09 12.09 В 2
{16}
50 км {ливн. осадки} 3/3 1000 м
[Cb cap]
+12.3 +5.7 64 +12 +12 1003.6 946.7 +14.4 0.0
12 12.09 СЗ 1 н/о н/о +3.8 +2.5 91 +2 +2 1005.5 946.8
15 12.09 СЗ 1 н/о н/о +0.7 +0.7 100 -2 -2 1005.5 946.1
18 12.09 ЮЗ 1 н/о н/о -2.0 -1.3 100 -4 -4 1004.8 944.9
21 12.09 штиль 0 н/о н/о -2.7 -2.3 100 -4 -4 1003.6 943.6 -3.1
00 13.09 З 1 50 км 10/8 1000 м
[Sc Ci fib]
+2.8 +2.2 96 +1 +1 1000.1 941.5 -3.1
03 13.09 ЮВ 1 50 км 9/3 1500 м
[Sc Ci fib]
+10.2 +5.2 71 +10 +12 995.6 938.7
06 13.09 В 4 50 км слаб. ливневой дождь 10/6 1000 м
[Cb cap Ac und]
+8.9 +6.5 85 +6 +6 993.0 936.1
09 13.09 С 3 50 км слаб. ливневой дождь 10/5 1000 м
[Cb cap Ac und]
+7.8 +6.9 94 +5 +5 991.4 934.4 +10.6 0.7
12 13.09 С 3 н/о н/о +6.3 +6.2 99 +3 +3 990.6 933.3
15 13.09 СЗ 1 н/о н/о +6.2 +5.7 97 +5 +5 989.0 931.8
18 13.09 СЗ 3 н/о н/о +5.5 +5.0 97 +2 +2 988.9 931.5
21 13.09 СЗ 2 н/о н/о +4.8 +4.9 100 +2 +2 989.9 932.3 +4.8
00 14.09 З 1 10 км слаб. ливневой дождь 10/8 1000 м
[Cb cap Ac und]
+5.3 +5.3 100 +4 +4 991.2 933.7 +4.6 4
03 14.09 З 5 20 км {ливн. осадки} 10/8 1000 м
[Cb cap Ac und]
+7.1 +1.8 69 +3 +3 992.6 935.3
06 14.09 З 7-10
{10}
20 км {ливн. осадки} 10/8 1000 м
[Cb cap Ac und]
+5.0 +0.8 74 -0 -0 995.4 937.5
09 14.09 СЗ 5
{11}
20 км 10/8 1000 м
[Cb cap Ac und]
+2.8 +0.3 84 -3 -3 999.0 940.4 +7.1 0.0
12 14.09 З 5 н/о н/о +0.2 +0.4 100 -6 -6 1001.8 942.6
15 14.09 З 3 н/о н/о -0.1 +0.3 100 -5 -5 1003.9 944.4
18 14.09 З 1 н/о н/о -0.3 0.0 100 -3 -3 1005.6 946.0
21 14.09 З 1 н/о н/о -0.4 -0.1 100 -3 -3 1006.6 946.9 -0.7
00 15.09 З 2 50 км 3/3 1000 м
[Cu med, cong]
-0.5 -2.9 84 -4 -3 1008.4 948.6 -0.7 2 2
03 15.09 Ю 1 50 км 3/1 1500 м
[Cu med, cong Ci fib]
+3.4 -2.0 68 +2 +6 1007.8 948.8
06 15.09 В 2 50 км 5/0
[Ci fib]
+5.0 -2.1 60 +3 +5 1007.6 948.9
09 15.09 ЮВ 2 50 км 8/0
[Ci fib]
+4.6 -1.8 63 +2 +2 1008.6 949.8 +5.9
12 15.09 СЗ 2 н/о н/о -2.8 -3.2 97 -7 -7 1011.3 950.8
15 15.09 СЗ 1 н/о н/о -5.4 -5.2 100 -8 -8 1012.5 951.4
18 15.09 СЗ 1 н/о н/о -6.3 -6.0 100 -9 -9 1012.6 951.2
21 15.09 З 1 н/о н/о -6.8 -6.7 100 -9 -9 1012.6 951.1 -7.6
00 16.09 З 2 50 км 6/0
[Ci fib]
-2.2 -4.1 87 -6 -5 1011.3 950.9 -7.6
03 16.09 Ю 1 50 км 6/0
[Ci fib]
+3.3 -2.8 64 +2 +6 1009.0 949.9

 

Местоположение метеостанции Батагай-Алыта (Якутия, Россия): широта 67.78 долгота 130.40 высота над уровнем моря 491 м.

В архиве по умолчанию представлена погода в Батагай-Алыте за последнюю неделю. Архивные данные за месяц целиком и за предыдущие месяцы, начиная с января 2011 года, Вы можете получить, выбрав интересующий диапазон дат из раскрывающегося списка и нажав кнопку "Ввод!".


*Определитесь, кто Вы:
робот инопланетянин человек

Внимание! Время в таблицах - всемирное. Для получения местного времени необходимо прибавить поправку, которая равна 9 ч.

Смотрите также архив погоды в соседних городах и на ближайших метеорологических станциях:

Погода в Екюччю (Якутия, Россия) (124 км)
Погода в Верхоянске (Якутия, Россия) (129 км)
Погода в Батагае (Якутия, Россия) (178 км)
Погода в Себян-Кюеле (Якутия, Россия) (276 км)
Погода в Джарджане (Якутия, Россия) (284 км)
Погода в Усть-Чарках (Якутия, Россия) (288 км)
Погода в Усть-Куйге (Якутия, Россия) (323 км)
Погода в Жиганске (Якутия, Россия) (324 км)
Погода в Кюсюре (Якутия, Россия) (343 км)
Погода в Иэме (Якутия, Россия) (365 км)

Пояснения к столбцам:

Ветер - указаны скорость ветра в м/с - средняя за 10 мин, порывы в срок и между сроками (в фигурных скобках) и направление, откуда дует ветер: С - северный, СВ - северо-восточный, В - восточный, ЮВ - юго-восточный, Ю - южный, ЮЗ - юго-западный, З - западный, СЗ - северо-западный.
Видимость - горизонтальная дальность видимости в метрах или километрах. При видимости от 1 до 10 км при отсутствии осадков обычно наблюдается дымка, при ухудшении видимости до 1 км и менее - туман. В сухую погоду видимость может ухудшаться дымом, пылью или мглою.
Явления - указаны атмосферные явления, наблюдавшиеся в срок или в последний час перед сроком; фигурными скобками обозначены явления, наблюдавшиеся между сроками (за 1-3 часа до срока); квадратными скобками обозначены град или гололедные отложения с указанием их диаметра в мм.
Облачность - указаны через наклонную черту общая и нижняя облачность в баллах и высота нижней границы облаков в метрах; квадратными скобками обозначены формы облаков: Ci - перистые, Cs - перисто-слоистые, Cc - перисто-кучевые, Ac - высококучевые, As - высокослоистые, Sc - слоисто-кучевые, Ns - слоисто-дождевые, Cu - кучевые, Cb - кучево-дождевые. Подробнее классификацию облаков см. в Атласе облаков (PDF).
T - Температура воздуха - температура, измеренная на высоте 2 м над землей.
Td - Температура точки росы - температура, при понижении до которой содержащийся в воздухе водяной пар достигнет насыщения.
f - Относительная влажность воздуха - влажноcть воздуха, измеренная на высоте 2 м над землей.
Te - Эффективная температура - температура, которую ощущает одетый по сезону человек в тени. Характеристика душности погоды. При расчете учитывается влияние влажности воздуха и скорости ветра на теплоощущения человека.
Tes - Эффективная температура на солнце - температура, которую ощущает человек, с поправкой на солнечный нагрев. Характеристика знойности погоды. Зависит от высоты солнца над горизонтом, облачности и скорости ветра. Ночью, в пасмурную погоду, а также при ветре 12 м/с и более поправка равна нулю.
P - Атмосферное давление - приведенное к уровню моря атмосферное давление.
Po - Атмосферное давление - измеренное на уровне метеостанции атмосферное давление.
Tmin - Минимальная температура - минимум температуры воздуха на высоте 2 м над землей.
Tmax - Максимальная температура - максимум температуры воздуха на высоте 2 м над землей.
R - Количество осадков - Количество выпавших осадков за период времени, мм. При наведении курсора мыши на число - период времени, за который выпало указанное количество осадков.
R24 - Количество осадков - Количество выпавших осадков за 24 часа, мм.
S - Снежный покров - Высота снежного покрова, см. При наведении курсора мыши на число - состояние снежного покрова и степень покрытия местности в баллах.